Location: Ferchesar
(52.6477°N, 12.4298°E)
Time: 05:30:02
(UTC+02:00)

Vanguard 3 - Pass Details

Date: 27 February 2021
Orbit: 508 x 3262 km, 33.3° (Epoch: 15 April)

Event Time Altitude Azimuth Distance (km) Brightness Sun altitude
Rises 14:23:14 0° 194° (SSW) 7,188 13.2 24.0°
Reaches altitude 10° 14:31:41 10° 175° (S) 5,922 12.4 23.3°
Maximum altitude 14:39:33 15° 149° (SSE) 5,090 11.6 22.6°
Drops below altitude 10° 14:46:16 10° 121° (ESE) 4,961 11.1 22.0°
Sets 14:52:00 0° 100° (E) 5,411 11.1 21.5°
